Regional Weather Roundup
Issued by NWS

Home | Current Version | Previous Version | Graphics & Text | Print | Product List | Glossary Off
Versions: 1 2 3 4 5 6 7 8 9 10 11 12 13 14 15 16 17 18 19 20 21 22 23 24 25 26 27 28 29 30 31 32 33 34 35 36 37 38 39 40 41 42 43 44 45 46 47 48 49 50

433
ASUS43 KLSX 280207
RWRMO

WEATHER SUMMARY FOR MISSOURI
NATIONAL WEATHER SERVICE SPRINGFIELD MO
900 PM CDT WED JUL 27 2016

NOTE: "FAIR" INDICATES FEW OR NO CLOUDS BELOW 12,000 FEET WITH NO
       SIGNIFICANT WEATHER AND/OR OBSTRUCTIONS TO VISIBILITY.
       CURRENT SKY AND/OR WEATHER CONDITIONS ARE NOT AVAILABLE FOR
       CHILLICOTHE AND FARMINGTON.

MOZ001>031-035>038-043-044-053-054-280300-
...NORTHERN AND WESTERN MISSOURI...

CITY           SKY/WX    TMP DP  RH WIND       PRES   REMARKS
KANSAS CTY INT PTCLDY    81  71  71 NW3       29.93R
KANSAS C DTWN  CLEAR     85  70  60 CALM      29.91R
LEE`S SUMMIT   CLOUDY    83  72  69 NE5       29.93R
ST JOSEPH      CLEAR     80  74  81 CALM      29.92R
CHILLICOTHE      N/A     79  74  84 CALM      29.92R
KIRKSVILLE     CLOUDY    79  70  74 CALM      29.94R

$$
MOZ066>068-077>081-088>096-101>105-280300-
...SOUTHWEST MISSOURI...

CITY           SKY/WX    TMP DP  RH WIND       PRES   REMARKS
SPRINGFIELD    CLOUDY    77  72  84 CALM      29.93F
JOPLIN         PTCLDY    76  71  85 S6        29.93S
BRANSON        PTCLDY    77  73  88 S7        29.96S

$$
MOZ032>034-039>042-045>050-055>058-069>072-280300-
...CENTRAL MISSOURI...

CITY           SKY/WX    TMP DP  RH WIND       PRES   REMARKS
COLUMBIA       PTCLDY    80  76  87 N5        29.91R
JEFFERSON CITY MOCLDY    81  76  84 CALM      29.88R
ROLLA          MOCLDY    78  73  84 S9        29.91S
SEDALIA        PTCLDY    84  74  71 CALM      29.92R HX  91
WHITEMAN AFB   PTCLDY    81  78  90 CALM      29.90R
OSAGE BEACH    CLOUDY    80  77  90 CALM      29.91S

$$
MOZ051-052-059>065-280300-
...EAST CENTRAL MISSOURI...

CITY           SKY/WX    TMP DP  RH WIND       PRES   REMARKS
ST LOUIS INTL  MOCLDY    85  72  65 S3        29.90F HX  91
SPIRIT OF STL  PTCLDY    79  75  87 CALM      29.88F
ST CHARLES     PTCLDY    81  76  84 CALM      29.88S

$$
MOZ072>076-082>087-097>100-106>115-280300-
...SOUTH CENTRAL AND SOUTHEAST MISSOURI...

CITY           SKY/WX    TMP DP  RH WIND       PRES   REMARKS
CAPE GIRARDEAU CLOUDY    75  73  93 CALM      29.92R
FARMINGTON     CLOUDY    79  76  90 CALM      29.95R
POPLAR BLUFF   CLOUDY    76  74  93 W8        29.91S
WEST PLAINS    CLOUDY    73  70  90 S3        29.95F

$$



USA.gov is the U.S. government's official web portal to all federal, state and local government web resources and services.